Location: Lewisville
(33.0462°N, 96.9942°W)
Time: 00:26:58
(UTC-05:00)

Envisat - Visible Passes

Search period start: 28 July 2021 00:00
Search period end: 07 August 2021 00:00
Orbit: 764 x 766 km, 98.2° (Epoch: 27 July)

Date Brightness Start Highest point End Pass type
(mag) Time Alt. Az. Time Alt. Az. Time Alt. Az.
28 Jul 5.6 05:39:56 10° NE 05:43:23 18° E 05:46:48 10° SE visible
30 Jul 4.8 06:04:18 10° NNE 06:08:53 33° E 06:13:26 10° SSE visible
31 Jul 5.8 05:29:16 10° ENE 05:31:48 14° E 05:34:19 10° ESE visible
02 Aug 5.2 05:53:08 10° NE 05:57:20 26° E 06:01:31 10° SSE visible
05 Aug 5.6 05:42:06 10° NE 05:45:47 20° E 05:49:26 10° SE visible
